Regional Weather Roundup
Issued by NWS

Home | Current Version | Previous Version | Graphics & Text | Print | Product List | Glossary On
Versions: 1 2 3 4 5 6 7 8 9 10 11 12 13 14 15 16 17 18 19 20 21 22 23 24 25 26 27 28 29 30 31 32 33 34 35 36 37 38 39 40 41 42 43 44 45 46 47 48 49 50
000
ASUS43 KFSD 280302
RWRSD

WEATHER ROUNDUP FOR SOUTH DAKOTA
NATIONAL WEATHER SERVICE SIOUX FALLS SD
1000 PM CDT FRI MAR 27 2015

NOTE: "FAIR" INDICATES FEW OR NO CLOUDS BELOW 12,000 FEET WITH NO
SIGNIFICANT WEATHER AND/OR OBSTRUCTIONS TO VISIBILITY.


SDZ001>005-009-010-012>017-280400-
NORTHWEST AND NORTH CENTRAL SOUTH DAKOTA

CITY           SKY/WX    TMP DP  RH WIND       PRES   REMARKS
BUFFALO          N/A     53  34  48 N10       29.87R
FAITH            N/A     47  32  56 NE8       29.93R
MOBRIDGE       MOCLDY    38  30  73 E8        29.92R
$$

SDZ012>016-024>037-041>051-057-063-072>074-280400-
SOUTHWEST AND SOUTH CENTRAL SOUTH DAKOTA

CITY           SKY/WX    TMP DP  RH WIND       PRES   REMARKS
RAPID CTY ARPT PTCLDY    45  33  63 NW10      29.94R
PIERRE         PTCLDY    35  30  82 E8        29.94R WCI  29
CUSTER         PTCLDY    50  27  40 NW5       30.03R
ELLSWORTH AFB  PTCLDY    46  34  62 NW9       29.93S
PHILIP         CLEAR     46  31  55 W5        29.90R
PINE RIDGE     MOCLDY    42  32  67 CALM      29.96R
SPEARFISH      FAIR      54  32  43 W3        29.99R
WINNER         FAIR      39  30  70 S7        29.93R
$$

SDZ004>011-016>023-039-040-280400-
NORTHEAST SOUTH DAKOTA

CITY           SKY/WX    TMP DP  RH WIND       PRES   REMARKS
ABERDEEN       CLOUDY    32  27  81 E7        30.04R WCI  26
WATERTOWN      CLOUDY    30  24  78 SE8       30.05R WCI  22
SISSETON         N/A     28  27  96 S9        30.08S WCI  19
$$

SDZ017-020-022-023-036>040-048>070-280400-
SOUTHEAST SOUTH DAKOTA

CITY           SKY/WX    TMP DP  RH WIND       PRES   REMARKS
SIOUX FALLS    CLOUDY    33  22  63 SE13      30.06R WCI  24
HURON          MOCLDY    30  27  88 E8        30.03R WCI  22
MITCHELL       CLOUDY    33  27  78 SE9       30.03R WCI  25
YANKTON        MOCLDY    34  25  69 SE12      30.05S WCI  25
$$

ABBREVIATIONS USED IN REMARKS
   TC - TEMPERATURE IN CELSIUS
  WCI - WIND CHILL INDEX
   HX - HEAT INDEX
  VSB - VISIBILITY




USA.gov is the U.S. government's official web portal to all federal, state and local government web resources and services.